Location: Ash Observatory
(39.7321°N, 75.2004°W)
Time: 02:17:25
(UTC-04:00)

ISS - Pass Details

Date: 27 March 2019
Orbit: 408 x 410 km, 51.6° (Epoch: 22 April)

Event Time Altitude Azimuth Distance (km) Brightness Sun altitude
Rises 21:21:35 0° 302° (WNW) 2,336 1.5 -23.4°
Reaches altitude 10° 21:25:13 10° 343° (NNW) 1,475 -0.5 -24.0°
Maximum altitude 21:26:00 11° 357° (N) 1,436 -0.7 -24.1°
Enters shadow 21:26:33 10° 7° (N) 1,454 -0.8 -24.2°
